www.pogodaiklimat.ru

Погода и климат >> Архив погоды >> Япония >> Нагоя


АРХИВ ПОГОДЫ в Нагоя

Время (UTC), дата Ветер
(напр.,м/с)
 
Видим.   Явления Облачность Т
(С)
Тd
(С)
f
(%)
Тe
(С)
Тes
(С)
Комфортность P
(гПа)
Po
(гПа)
Тmin
(С)
Tmax
(С)
R
(мм)
R24
(мм)
S
(см)
22 12.09 Ю 3 н/о н/о +24.2 +20.3 79 +30 +30 очень
душно
1013.9 1007.4
23 12.09 ЮВ 2 н/о н/о +24.6 +19.5 73 +30 +30 очень
душно
1014.5 1008.0
00 13.09 ЮВ 2 20 км {ливн. осадки} 10/10
[Cu med, cong]
+24.7 +18.9 70 +30 +30 очень
душно
1014.6 1008.1 +24.0 0.0
01 13.09 Ю 3 н/о н/о +25.2 +19.8 72 +31 +31 очень
душно
1014.5 1008.0
02 13.09 Ю 5 н/о н/о +25.6 +17.5 61 +30 +30 душно 1013.9 1007.5
03 13.09 ЮВ 5 25 км {ливн. осадки} 10/8
[Cu Sc Ac As]
+25.7 +16.8 58 +29 +30 душно 1013.3 1006.9
04 13.09 ЮВ 3 н/о н/о +25.7 +17.6 61 +30 +30 душно 1013.1 1006.7
05 13.09 Ю 4 н/о н/о +25.6 +17.3 60 +30 +30 душно 1013.2 1006.8
06 13.09 ЮВ 5 30 км {ливн. осадки} 9/8
[Sc Ac As]
+26.0 +16.8 57 +30 +30 душно 1013.1 1006.7 0.0
08 13.09 ЮВ 2 н/о н/о +25.4 +17.1 60 +29 +29 душно 1013.3 1006.9
09 13.09 ЮВ 2 25 км 8/3
[Sc Ac trans Ci sp]
+25.0 +17.2 62 +29 +29 душно 1013.2 1006.7
10 13.09 Ю 3 н/о н/о +24.7 +16.9 62 +28 +28 душно 1013.6 1007.1
11 13.09 ЮВ 3 н/о н/о +24.3 +17.3 65 +28 +28 душно 1014.4 1007.9
12 13.09 ЮВ 2 25 км 9/3
[Sc Ac trans]
+23.8 +17.3 67 +28 +28 душно 1014.8 1008.3 +26.3 0.0
13 13.09 ЮВ 3 н/о н/о +23.8 +16.4 63 +27 +27 жарко 1015.2 1008.7
14 13.09 ЮВ 3 н/о н/о +23.2 +16.5 66 +28 +28 душно 1015.0 1008.5
15 13.09 ЮВ 2 н/о н/о +23.1 +16.9 68 +28 +28 душно 1014.5 1008.0
16 13.09 В 1 н/о н/о +22.4 +17.1 72 +27 +27 душно 1014.0 1007.5
17 13.09 СВ 2 н/о н/о +22.5 +18.3 77 +28 +28 душно 1014.0 1007.5
18 13.09 С 3 25 км 1/0
[Ac trans]
+22.1 +17.9 77 +27 +27 душно 1013.9 1007.4
19 13.09 СВ 3 н/о н/о +21.9 +17.7 77 +26 +26 душно 1013.9 1007.4
21 13.09 С 2 25 км 9/0
[Ac trans]
+21.9 +17.5 76 +26 +26 душно 1014.2 1007.7
00 14.09 С 2 20 км 8/8
[Sc Ac trans]
+24.3 +18.7 71 +29 +31 душно 1013.9 1007.4 +21.7
01 14.09 СВ 1 н/о н/о +26.0 +17.9 61 +30 +30 душно 1013.5 1007.1
02 14.09 Ю 3 н/о н/о +27.1 +16.7 53 +31 +31 душно 1013.2 1006.8
03 14.09 Ю 2 20 км 9/4
[Cu Sc Ac As]
+28.7 +18.2 53 +33 +38 очень
душно
1012.7 1006.3
04 14.09 Ю 2 н/о н/о +28.5 +16.8 49 +32 +32 душно 1011.9 1005.5
05 14.09 В 2 н/о н/о +29.1 +17.9 51 +34 +34 очень
душно
1011.3 1004.9
06 14.09 ЮЗ 3 20 км 8/1
[Cu Sc Ac trans]
+29.5 +18.3 51 +34 +37 очень
душно
1010.6 1004.3
07 14.09 ЮЗ 4 н/о н/о +28.9 +19.0 55 +34 +34 очень
душно
1010.7 1004.3
08 14.09 ЮЗ 4 н/о н/о +27.5 +18.8 59 +33 +33 очень
душно
1011.1 1004.7
09 14.09 ЮЗ 4 30 км 9/9
[Cu Sc Ac trans]
+26.6 +19.2 64 +32 +32 очень
душно
1011.4 1005.0
10 14.09 ЮЗ 3 н/о н/о +26.2 +20.5 71 +33 +33 очень
душно
1011.9 1005.5
11 14.09 Ю 3 н/о н/о +26.6 +20.0 67 +33 +33 очень
душно
1012.2 1005.8
12 14.09 Ю 3 20 км 9/8
[Cu Sc Ac trans]
+26.5 +19.9 67 +32 +32 очень
душно
1012.3 1005.9 +30.1
13 14.09 Ю 3 н/о н/о +26.5 +19.1 64 +32 +32 очень
душно
1012.0 1005.6
14 14.09 Ю 2 н/о н/о +26.2 +18.6 63 +31 +31 очень
душно
1011.8 1005.4
15 14.09 Ю 2 н/о н/о +25.7 +18.6 65 +31 +31 очень
душно
1011.4 1005.0
16 14.09 Ю 1 н/о н/о +25.4 +18.6 66 +30 +30 душно 1011.1 1004.7
17 14.09 С 2 н/о н/о +24.9 +21.2 80 +31 +31 очень
душно
1010.9 1004.5
18 14.09 С 2 20 км 5/1
[Cu hum Ac trans]
+24.6 +20.7 79 +31 +31 очень
душно
1011.0 1004.5
19 14.09 С 1 н/о н/о +23.9 +20.5 81 +30 +30 очень
душно
1010.8 1004.3
20 14.09 СВ 2 н/о н/о +23.5 +20.6 84 +29 +29 душно 1010.6 1004.1
21 14.09 С 1 15 км 1/1
[Cu hum]
+23.5 +20.5 83 +29 +29 душно 1010.2 1003.7
22 14.09 С 3 н/о н/о +24.6 +20.5 78 +31 +31 очень
душно
1010.1 1003.7
23 14.09 С 2 н/о н/о +25.8 +20.4 72 +32 +32 очень
душно
1009.9 1003.5
00 15.09 С 3 15 км 1/1
[Cu hum]
+27.1 +20.0 65 +33 +40 очень
душно
1009.8 1003.4 +22.9
01 15.09 СЗ 2 н/о н/о +27.8 +18.5 57 +33 +33 очень
душно
1009.1 1002.7
02 15.09 С 2 н/о н/о +29.8 +19.8 55 +36 +36 очень
душно
1008.3 1002.0
03 15.09 З 2 20 км 1/1
[Cu hum]
+30.9 +19.0 49 +36 +51 опасность
солнечного
удара
1007.3 1001.0
04 15.09 З 2 н/о н/о +32.0 +18.9 46 +37 +37 очень
душно
1006.2 999.9
05 15.09 СВ 2 н/о н/о +32.1 +17.6 42 +36 +36 очень
душно
1005.3 999.1
06 15.09 Ю 2 20 км 3/1
[Cu med, cong Ci fib]
+33.0 +18.8 43 +38 +44 очень
душно
1004.8 998.6
07 15.09 З 3 н/о н/о +32.0 +18.6 45 +37 +37 очень
душно
1004.4 998.2
08 15.09 СЗ 4 н/о н/о +31.8 +17.7 43 +36 +36 очень
душно
1004.3 998.1
09 15.09 З 3 20 км 1/1
[Cu hum]
+30.7 +19.4 51 +36 +36 очень
душно
1004.6 998.3
10 15.09 З 3 н/о н/о +29.9 +19.9 55 +36 +36 очень
душно
1005.0 998.7
11 15.09 СЗ 3 н/о н/о +28.9 +20.4 60 +36 +36 очень
душно
1005.6 999.3
12 15.09 С 2 20 км 1/1
[Cu hum Ac trans]
+28.1 +20.7 64 +35 +35 очень
душно
1005.4 999.1 +33.7
13 15.09 С 3 н/о н/о +27.5 +20.6 66 +34 +34 очень
душно
1005.0 998.7
14 15.09 С 3 н/о н/о +27.0 +20.6 68 +34 +34 очень
душно
1004.7 998.3
15 15.09 С 4 н/о н/о +26.5 +20.8 71 +33 +33 очень
душно
1004.2 997.8
16 15.09 С 3 н/о н/о +26.0 +20.8 73 +33 +33 очень
душно
1003.9 997.5
17 15.09 С 4 н/о н/о +25.7 +20.5 73 +32 +32 очень
душно
1003.6 997.2
18 15.09 С 4 20 км 9/9
[Cu Sc]
+25.8 +19.7 69 +31 +31 очень
душно
1003.3 996.9
19 15.09 С 4 н/о н/о +25.9 +18.8 65 +31 +31 очень
душно
1002.8 996.4
21 15.09 С 3 20 км 3/3
[Cu Sc Ac trans]
+25.3 +19.2 69 +30 +30 душно 1002.5 996.1
22 15.09 С 3 н/о н/о +26.1 +19.5 67 +32 +32 очень
душно
1002.3 995.9
23 15.09 С 4 н/о н/о +28.1 +19.1 58 +33 +33 очень
душно
1002.1 995.8
00 16.09 С 5 25 км 1/1
[Cu Sc Ac trans]
+29.3 +18.4 52 +34 +38 очень
душно
1001.8 995.5 +25.3
01 16.09 СЗ 5 н/о н/о +30.8 +19.2 50 +36 +36 очень
душно
1001.0 994.8
03 16.09 СЗ 5 25 км 1/1
[Cu hum Ac trans]
+34.2 +19.5 42 +40 +47 очень
душно
999.5 993.3
04 16.09 С 5 н/о н/о +34.4 +18.0 38 +38 +38 очень
душно
999.1 992.9
05 16.09 СЗ 7 н/о н/о +33.9 +18.8 41 +39 +39 очень
душно
999.1 992.9
06 16.09 СЗ 7 25 км 1/1
[Cu hum Ac trans]
+33.6 +18.9 42 +39 +41 очень
душно
999.2 993.0
07 16.09 СЗ 7 н/о н/о +31.6 +20.6 52 +39 +39 очень
душно
999.6 993.4
08 16.09 СЗ 7 н/о н/о +30.0 +20.3 56 +37 +37 очень
душно
1000.1 993.8
09 16.09 СЗ 5 25 км 1/1
[Cu Sc Ac trans]
+28.9 +20.4 60 +36 +36 очень
душно
1000.7 994.4
10 16.09 СЗ 6 н/о н/о +28.6 +19.0 56 +34 +34 очень
душно
1001.7 995.4
11 16.09 СЗ 6 н/о н/о +28.2 +19.2 58 +34 +34 очень
душно
1002.6 996.3
12 16.09 СЗ 5 25 км 3/0
[Ac trans]
+27.1 +19.7 64 +33 +33 очень
душно
1003.4 997.1 +34.9
13 16.09 СЗ 4 н/о н/о +26.4 +19.8 67 +32 +32 очень
душно
1003.8 997.4
14 16.09 СЗ 3 н/о н/о +26.2 +19.8 68 +32 +32 очень
душно
1003.8 997.4
15 16.09 СЗ 4 н/о н/о +26.4 +19.6 66 +32 +32 очень
душно
1004.4 998.0
16 16.09 С 4 н/о н/о +26.2 +19.4 66 +32 +32 очень
душно
1004.9 998.5
17 16.09 С 3 н/о н/о +25.8 +19.5 68 +31 +31 очень
душно
1004.8 998.4
18 16.09 С 4 25 км 9/9
[Sc]
+25.9 +19.1 66 +31 +31 очень
душно
1005.4 999.0
19 16.09 С 4 н/о н/о +25.5 +18.9 67 +30 +30 душно 1006.2 999.8
20 16.09 С 3 н/о н/о +25.2 +18.9 68 +30 +30 душно 1006.8 1000.4
21 16.09 С 3 25 км 5/4
[Cu Sc Ac As]
+24.9 +18.8 69 +30 +30 душно 1006.9 1000.5
22 16.09 СЗ 3 н/о н/о +25.4 +19.1 68 +30 +30 душно 1007.4 1001.0
23 16.09 С 3 н/о н/о +26.1 +19.0 65 +31 +31 очень
душно
1008.0 1001.6
00 17.09 С 4 25 км 6/6
[Cu Sc Ac trans]
+28.5 +18.3 54 +33 +35 очень
душно
1008.5 1002.2 +24.8
01 17.09 С 2 н/о н/о +29.9 +18.7 51 +35 +35 очень
душно
1008.4 1002.1
02 17.09 С 2 н/о н/о +30.2 +19.0 51 +36 +36 очень
душно
1007.9 1001.6
03 17.09 СЗ 2 25 км 8/8
[Cu Sc Ac trans]
+32.1 +19.7 48 +38 +41 очень
душно
1007.6 1001.3
04 17.09 ЮЗ 2 н/о н/о +31.0 +19.7 51 +37 +37 очень
душно
1007.2 1000.9
05 17.09 В 2 н/о н/о +31.1 +20.1 52 +38 +38 очень
душно
1007.0 1000.7
06 17.09 Ю 3 25 км 9/9
[Cu Sc Ac trans]
+32.8 +21.3 51 +41 +41 опасность
перегрева
1006.8 1000.6
07 17.09 ЮЗ 4 н/о н/о +31.1 +20.1 52 +38 +38 очень
душно
1007.2 1000.9
08 17.09 ЮЗ 5 н/о н/о +30.5 +20.2 54 +37 +37 очень
душно
1007.8 1001.5
09 17.09 ЮЗ 5 30 км 8/8
[Cu Sc Ac trans]
+29.5 +20.4 58 +36 +36 очень
душно
1008.6 1002.3
10 17.09 СЗ 1 н/о н/о +28.3 +20.6 63 +35 +35 очень
душно
1009.2 1002.8
11 17.09 С 3 н/о н/о +27.7 +20.0 63 +34 +34 очень
душно
1009.7 1003.3
12 17.09 Ю 3 25 км 9/9
[Sc]
+27.7 +21.5 69 +35 +35 очень
душно
1010.3 1003.9 +33.0
13 17.09 Ю 3 н/о н/о +27.4 +22.1 73 +36 +36 очень
душно
1010.6 1004.2
14 17.09 Ю 3 н/о н/о +27.1 +22.5 76 +36 +36 очень
душно
1010.4 1004.0
15 17.09 Ю 3 н/о н/о +26.9 +22.7 78 +36 +36 очень
душно
1010.3 1003.9
16 17.09 ЮЗ 3 н/о н/о +26.8 +22.0 75 +35 +35 очень
душно
1010.1 1003.7
17 17.09 ЮЗ 2 н/о н/о +26.5 +21.5 74 +34 +34 очень
душно
1009.8 1003.4
18 17.09 С 2 25 км слаб. ливневой дождь 10/9
[Cu med, cong Ac As]
+26.1 +20.7 72 +33 +33 очень
душно
1009.6 1003.2 0.0
20 17.09 З 2 н/о н/о +23.7 +21.6 88 +30 +30 очень
душно
1009.9 1003.4
21 17.09 СЗ 3 10 км слаб. ливневой дождь 10/10
[Cu med, cong]
+23.2 +21.8 92 +31 +31 очень
душно
1010.2 1003.7
23 17.09 ЮЗ 3 н/о н/о +23.8 +21.5 87 +30 +30 очень
душно
1010.5 1004.0
00 18.09 СЗ 3 30 км {ливн. осадки} 10/1
[Cu med, cong Ac As]
+24.8 +20.9 79 +31 +33 очень
душно
1010.9 1004.5 +22.7 3
01 18.09 ЮЗ 3 н/о н/о +25.1 +19.9 73 +31 +31 очень
душно
1011.0 1004.6
02 18.09 СЗ 2 н/о н/о +26.1 +20.4 71 +32 +32 очень
душно
1010.7 1004.3
03 18.09 ЮЗ 4 20 км 9/1
[Cu med, cong Ac As]
+26.6 +20.0 67 +33 +36 очень
душно
1009.6 1003.2
04 18.09 Ю 4 н/о н/о +25.6 +21.3 77 +32 +32 очень
душно
1009.1 1002.7
05 18.09 Ю 4 н/о н/о +24.9 +21.0 79 +31 +31 очень
душно
1008.7 1002.3
06 18.09 Ю 4 10 км в посл. час ливневой дождь 9/4
[Cu med, cong Ac As]
+24.7 +21.0 80 +31 +32 очень
душно
1009.2 1002.8 0.0
07 18.09 Ю 4 н/о н/о +24.9 +21.2 80 +31 +31 очень
душно
1008.9 1002.5
09 18.09 Ю 2 15 км 6/6
[Cu Sc Ac trans Ci sp]
+24.3 +21.2 83 +31 +31 очень
душно
1009.3 1002.9
10 18.09 З 3 н/о н/о +24.4 +16.7 62 +28 +28 душно 1009.8 1003.4
11 18.09 СЗ 4 н/о н/о +24.7 +15.9 58 +28 +28 душно 1010.2 1003.8
12 18.09 СЗ 5 15 км 3/1
[Cu med, cong Ac trans Ci sp]
+23.9 +15.4 59 +27 +27 жарко 1010.7 1004.2 +27.0 0.0
13 18.09 С 3 н/о н/о +23.4 +15.5 61 +28 +28 душно 1011.1 1004.6
14 18.09 СЗ 4 н/о н/о +23.2 +15.3 61 +27 +27 душно 1010.8 1004.3
15 18.09 СЗ 3 н/о н/о +22.8 +15.2 62 +27 +27 душно 1010.7 1004.2
16 18.09 СЗ 4 н/о н/о +22.6 +15.2 63 +26 +26 жарко 1010.7 1004.2
17 18.09 С 3 н/о н/о +22.9 +14.7 60 +27 +27 душно 1010.7 1004.2
18 18.09 С 3 15 км 9/6
[Sc Ac As]
+23.2 +14.0 56 +27 +27 душно 1011.1 1004.6
19 18.09 С 4 н/о н/о +23.2 +13.1 53 +26 +26 жарко 1011.2 1004.7
20 18.09 С 3 н/о н/о +22.5 +12.7 54 +25 +25 комфорт 1011.8 1005.3
21 18.09 С 3 20 км 8/1
[Cu Sc Ac trans Ci fib]
+22.0 +12.8 56 +25 +25 комфорт 1012.8 1006.3
22 18.09 С 4 н/о н/о +22.5 +12.2 52 +25 +25 комфорт 1013.3 1006.8
23 18.09 С 6 н/о н/о +23.9 +13.5 52 +26 +26 жарко 1013.6 1007.1
00 19.09 С 5 25 км 3/1
[Cu Sc Ac trans Ci fib]
+24.9 +13.2 48 +27 +31 жарко 1014.0 1007.5 +21.5
01 19.09 С 4 н/о н/о +25.8 +13.0 45 +28 +28 жарко 1013.5 1007.1
02 19.09 С 4 н/о н/о +26.7 +13.1 43 +28 +28 жарко 1013.3 1006.9
03 19.09 СЗ 5 30 км 3/3
[Cu Sc Ac trans Ci fib]
+28.4 +13.5 40 +30 +36 жарко 1013.1 1006.7
04 19.09 СЗ 5 н/о н/о +28.8 +13.9 40 +31 +31 жарко 1012.4 1006.0
05 19.09 СЗ 3 н/о н/о +28.8 +10.9 33 +29 +29 жарко 1012.1 1005.7
06 19.09 З 4 30 км 1/1
[Cu hum Ac trans Ci sp]
+28.9 +11.5 34 +30 +34 жарко 1011.7 1005.3
07 19.09 СЗ 5 н/о н/о +28.0 +12.4 38 +29 +29 жарко 1011.4 1005.0
08 19.09 СЗ 4 н/о н/о +26.9 +11.8 39 +28 +28 жарко 1012.0 1005.6
09 19.09 СЗ 5 30 км 1/0
[Ci fib]
+25.1 +11.3 42 +26 +26 жарко 1012.6 1006.1
10 19.09 СЗ 3 н/о н/о +23.6 +12.3 49 +25 +25 комфорт 1013.4 1006.9
11 19.09 С 5 н/о н/о +23.1 +12.7 52 +26 +26 жарко 1014.2 1007.7
12 19.09 С 2 30 км 3/0
[Ci fib]
+21.9 +12.7 56 +24 +24 комфорт 1014.6 1008.1 +29.7
13 19.09 С 4 н/о н/о +21.3 +12.5 57 +24 +24 комфорт 1014.9 1008.3
14 19.09 С 3 н/о н/о +20.7 +12.4 59 +23 +23 комфорт 1015.2 1008.6
15 19.09 С 2 н/о н/о +20.5 +13.0 62 +24 +24 комфорт 1015.2 1008.6
16 19.09 С 3 н/о н/о +19.9 +12.7 63 +22 +22 комфорт 1014.8 1008.2
18 19.09 С 3 25 км 3/3
[Cu hum]
+19.2 +12.2 64 +21 +21 комфорт 1014.9 1008.3
19 19.09 С 3 н/о н/о +18.9 +12.0 64 +20 +20 холодно 1014.9 1008.3
20 19.09 С 4 н/о н/о +18.4 +12.2 67 +19 +19 холодно 1015.4 1008.8
21 19.09 С 1 30 км 8/1
[Cu hum Ci fib]
+18.0 +12.9 72 +19 +19 прохладно 1016.2 1009.5
22 19.09 С 3 н/о н/о +19.4 +13.1 67 +21 +21 комфорт 1016.7 1010.1

 

Местоположение метеостанции Нагоя (Япония): широта 35.17 долгота 136.96 высота над уровнем моря 56 м.

В архиве по умолчанию представлена погода в Нагоя за последнюю неделю. Архивные данные за месяц целиком и за предыдущие месяцы, начиная с января 2011 года, Вы можете получить, выбрав интересующий диапазон дат из раскрывающегося списка и нажав кнопку "Ввод!".


*Определитесь, кто Вы:
робот инопланетянин человек

Внимание! Время в таблицах - всемирное. Для получения местного времени необходимо прибавить поправку, которая равна 9 ч.

Смотрите также архив погоды в соседних городах и на ближайших метеорологических станциях:

Погода в Гифу (Япония) (31 км)
Погода в Йоккаити (Япония) (44 км)
Погода в Ирако (Япония) (61 км)
Погода в Цу (Япония) (64 км)
Погода в Хиконе (Япония) (66 км)
Погода в Хамамацу (Япония) (85 км)
Погода в Уэно (Япония) (86 км)
Погода в Ииде (Япония) (86 км)
Погода в Цуруге (Япония) (98 км)
Погода в Такаяме (Япония) (112 км)

Пояснения к столбцам:

Ветер - указаны скорость ветра в м/с - средняя за 10 мин, порывы в срок и между сроками (в фигурных скобках) и направление, откуда дует ветер: С - северный, СВ - северо-восточный, В - восточный, ЮВ - юго-восточный, Ю - южный, ЮЗ - юго-западный, З - западный, СЗ - северо-западный.
Видимость - горизонтальная дальность видимости в метрах или километрах. При видимости от 1 до 10 км при отсутствии осадков обычно наблюдается дымка, при ухудшении видимости до 1 км и менее - туман. В сухую погоду видимость может ухудшаться дымом, пылью или мглою.
Явления - указаны атмосферные явления, наблюдавшиеся в срок или в последний час перед сроком; фигурными скобками обозначены явления, наблюдавшиеся между сроками (за 1-3 часа до срока); квадратными скобками обозначены град или гололедные отложения с указанием их диаметра в мм.
Облачность - указаны через наклонную черту общая и нижняя облачность в баллах и высота нижней границы облаков в метрах; квадратными скобками обозначены формы облаков: Ci - перистые, Cs - перисто-слоистые, Cc - перисто-кучевые, Ac - высококучевые, As - высокослоистые, Sc - слоисто-кучевые, Ns - слоисто-дождевые, Cu - кучевые, Cb - кучево-дождевые. Подробнее классификацию облаков см. в Атласе облаков (PDF).
T - Температура воздуха - температура, измеренная на высоте 2 м над землей.
Td - Температура точки росы - температура, при понижении до которой содержащийся в воздухе водяной пар достигнет насыщения.
f - Относительная влажность воздуха - влажноcть воздуха, измеренная на высоте 2 м над землей.
Te - Эффективная температура - температура, которую ощущает одетый по сезону человек в тени. Характеристика душности погоды. При расчете учитывается влияние влажности воздуха и скорости ветра на теплоощущения человека.
Tes - Эффективная температура на солнце - температура, которую ощущает человек, с поправкой на солнечный нагрев. Характеристика знойности погоды. Зависит от высоты солнца над горизонтом, облачности и скорости ветра. Ночью, в пасмурную погоду, а также при ветре 12 м/с и более поправка равна нулю.
P - Атмосферное давление - приведенное к уровню моря атмосферное давление.
Po - Атмосферное давление - измеренное на уровне метеостанции атмосферное давление.
Tmin - Минимальная температура - минимум температуры воздуха на высоте 2 м над землей.
Tmax - Максимальная температура - максимум температуры воздуха на высоте 2 м над землей.
R - Количество осадков - Количество выпавших осадков за период времени, мм. При наведении курсора мыши на число - период времени, за который выпало указанное количество осадков.
R24 - Количество осадков - Количество выпавших осадков за 24 часа, мм.
S - Снежный покров - Высота снежного покрова, см. При наведении курсора мыши на число - состояние снежного покрова и степень покрытия местности в баллах.